GFSGL_850_spd_009.txt.gz
Wind_Speed
6 5 6 6 8 8 9 10 12 15 14 14 10 12 18 20 22 22 22 21 19 14 8 16 11 12 22 29 32 26 16 14 8 19 11 18 16 13 17 15 13 13 13
8 6 6 7 7 8 10 10 14 15 16 15 14 15 19 21 19 21 19 18 15 17 15 18 17 19 26 30 30 19 12 11 12 19 15 18 17 15 14 13 7 8 11
10 8 8 9 8 9 16 9 12 11 13 17 21 21 16 15 17 16 18 19 19 18 17 15 21 23 32 26 24 12 13 12 14 15 13 12 12 10 11 10 12 13 13
11 10 9 11 9 10 11 11 12 12 11 12 16 20 21 20 18 19 18 20 21 19 20 20 20 28 21 19 16 12 13 13 14 12 13 12 9 12 11 12 13 16 14
12 12 11 12 11 11 11 12 13 12 13 12 14 14 14 15 15 18 20 19 19 19 19 17 17 17 17 19 16 14 17 14 14 12 12 12 11 12 15 12 13 12 15
14 13 13 13 13 12 12 12 13 13 12 12 13 12 12 21 22 21 18 19 20 23 22 19 18 17 18 17 16 13 18 13 13 11 9 9 10 13 10 12 13 14 15
15 14 15 15 15 14 13 13 13 14 13 11 12 13 19 19 19 19 18 19 18 18 19 19 15 15 14 13 12 12 14 15 13 12 9 8 9 11 13 15 16 16 19
17 16 16 17 16 16 15 14 14 14 14 13 12 12 16 17 18 19 17 16 16 15 14 13 12 13 13 12 12 12 12 11 10 10 12 12 11 12 14 14 16 22 22
19 18 17 18 19 18 17 17 15 15 14 13 11 11 11 15 16 15 14 12 12 13 12 12 12 13 13 12 10 9 8 8 7 6 5 7 10 13 16 19 16 17 21
21 19 18 18 20 20 19 18 16 15 14 12 11 10 10 14 16 16 14 8 11 11 13 12 13 14 14 14 12 10 7 3 3 5 10 13 16 19 22 24 24 22 22
21 20 19 19 20 21 22 19 18 16 14 14 13 12 12 11 17 18 19 13 11 11 11 14 15 14 13 10 6 5 4 5 8 11 15 17 17 17 18 19 22 22 24
23 22 21 20 19 21 23 21 19 19 17 16 14 13 13 16 19 20 21 18 17 11 9 11 12 10 8 6 4 4 6 10 13 13 10 12 12 13 13 13 15 22 24
25 24 23 21 20 20 22 21 20 22 18 17 16 15 15 17 20 21 21 20 20 16 12 12 10 8 7 6 7 10 13 15 15 11 9 10 10 12 19 21 16 21 20
28 27 26 24 22 21 20 20 20 21 20 19 19 18 17 17 18 23 23 21 20 17 14 9 8 8 9 11 11 12 13 11 9 8 9 8 8 9 9 11 16 18 21
32 30 29 26 26 24 23 23 22 22 22 21 21 20 21 21 20 22 22 21 18 13 10 9 9 9 11 11 9 5 3 4 4 4 6 7 7 9 10 13 10 19 21
35 34 33 29 28 25 24 23 24 21 25 24 22 21 20 20 22 22 21 18 14 13 11 10 9 9 8 7 6 5 10 9 6 2 2 2 5 6 11 14 13 9 16
40 37 33 31 30 30 28 27 26 29 25 31 29 27 21 26 21 22 20 17 13 12 11 10 10 11 9 7 6 6 9 12 8 3 2 4 9 12 14 13 13 12 13
40 38 36 36 32 31 31 30 27 28 30 33 35 34 29 24 26 23 21 18 16 16 13 11 11 8 9 12 11 12 11 5 5 1 11 15 8 8 8 9 11 12 13
39 41 40 33 34 31 30 28 28 27 28 28 28 38 37 33 28 26 24 20 13 11 9 12 13 14 12 12 11 10 10 7 6 8 6 7 6 5 6 9 10 12 15
39 40 38 38 33 35 32 32 30 30 29 29 33 32 40 39 37 33 29 26 17 16 16 14 14 14 13 14 13 8 2 7 11 6 5 7 7 6 7 8 10 11 12
36 36 42 38 35 34 35 32 31 29 28 28 30 31 30 35 36 30 24 19 22 21 19 17 18 19 18 12 12 13 11 10 6 5 6 5 5 8 9 9 10 12 14
31 33 34 42 38 34 34 34 30 29 26 24 25 29 27 23 21 21 20 21 19 22 22 25 23 19 19 16 15 15 8 9 8 4 5 3 5 8 7 8 10 12 14
27 28 30 36 40 38 33 32 33 29 28 25 25 27 28 22 23 23 23 24 27 25 26 23 23 20 21 19 10 13 14 10 7 6 4 4 6 7 6 9 11 14 16
24 24 26 28 37 36 33 36 37 33 29 25 31 23 25 25 27 25 23 23 23 24 22 23 23 19 14 16 19 16 13 10 7 3 4 3 2 6 8 11 13 14 16
22 23 24 26 23 37 34 28 32 34 31 30 29 29 29 28 28 28 25 25 27 29 26 21 16 18 22 19 17 15 12 9 5 3 4 2 5 8 9 11 13 15 16
18 21 21 23 22 23 30 32 30 29 29 28 31 33 34 33 33 34 35 34 32 25 22 21 23 23 23 20 16 13 10 6 3 4 3 4 5 8 11 12 13 14 16

GFSGL_850_spd_015.txt.gz
Wind_Speed
5 5 4 2 2 7 9 11 7 10 14 14 15 17 20 21 21 23 26 23 21 19 19 19 22 23 29 34 25 27 26 20 32 27 24 20 25 28 22 18 15 11 10
5 6 6 3 1 6 7 11 11 7 14 15 17 18 17 21 21 24 24 22 22 20 16 23 27 25 32 25 24 27 19 21 23 22 19 17 18 16 15 15 13 10 9
8 5 7 2 1 5 8 10 13 11 10 15 15 17 18 20 21 22 22 18 14 13 16 24 26 25 30 25 28 25 25 21 17 16 17 16 14 13 12 14 10 9 10
11 6 9 2 10 10 9 11 12 15 14 15 13 16 17 16 17 18 17 15 15 16 18 20 26 26 30 28 28 27 16 15 16 17 14 18 16 13 10 11 12 11 9
13 7 8 6 12 10 11 10 11 12 15 16 15 15 18 16 15 15 15 15 15 17 16 16 25 22 29 30 25 19 18 20 18 12 13 16 15 16 12 11 12 9 9
14 10 7 10 13 11 11 10 11 13 15 13 14 15 17 19 20 18 20 21 19 21 21 24 24 34 28 22 17 13 16 17 14 14 15 13 11 9 8 7 6 9 11
15 12 6 16 14 14 13 13 11 9 10 9 12 15 18 20 19 17 20 19 20 20 26 28 31 32 23 20 18 15 16 10 9 7 7 6 4 2 1 4 8 11 13
17 14 8 17 15 15 16 15 12 8 5 11 18 17 19 21 19 18 16 18 19 21 21 22 26 25 20 19 17 16 17 16 13 14 15 10 7 9 9 10 13 14 15
20 18 12 17 16 18 17 18 16 10 7 14 17 19 19 21 19 19 19 21 21 19 16 18 21 21 18 16 18 24 20 18 15 13 12 12 11 12 13 14 17 17 19
20 22 15 14 18 18 18 16 18 16 11 11 14 15 16 18 17 17 18 21 18 17 15 17 16 18 19 19 19 18 17 17 14 14 11 9 8 7 7 6 5 4 5
19 21 19 15 19 15 19 16 16 20 16 11 11 14 15 16 16 15 14 13 13 15 14 17 17 17 16 16 15 15 15 14 12 9 7 5 3 4 5 3 2 4 7
22 23 22 19 21 21 19 19 15 20 21 16 12 11 14 17 17 16 14 11 11 12 14 15 16 18 17 17 15 13 11 8 6 5 5 8 9 5 1 2 6 8 6
24 26 25 22 21 22 22 20 19 22 21 21 19 16 14 14 18 20 18 13 13 14 14 17 18 19 18 16 15 14 13 12 10 11 12 8 3 3 6 9 5 4 6
26 27 28 26 23 22 21 21 21 23 26 23 22 21 18 16 19 24 24 19 18 16 17 18 18 17 17 16 14 13 11 9 10 11 8 5 6 7 8 7 6 5 8
28 28 31 28 26 23 22 22 21 22 25 26 23 23 20 19 18 22 26 25 22 19 20 19 20 20 19 18 13 9 9 11 11 10 5 5 7 3 1 4 7 3 3
32 32 32 32 30 26 22 22 20 20 20 25 18 18 18 14 12 19 24 26 26 25 23 21 20 17 15 12 12 15 15 15 15 10 5 3 2 1 5 2 4 5 5
37 36 34 33 33 30 25 24 22 19 20 15 22 19 18 16 14 17 22 25 26 28 24 20 18 16 12 15 15 15 19 21 15 9 6 4 4 5 6 5 3 3 5
39 37 37 36 35 33 29 26 26 24 27 24 27 27 25 24 22 18 21 26 30 31 28 24 21 18 18 20 21 23 24 22 18 13 10 9 8 10 7 5 4 5 8
37 40 38 38 36 33 30 27 27 28 28 28 29 32 29 30 26 26 25 28 32 32 29 27 25 22 22 22 28 29 25 21 17 14 11 13 14 11 9 5 4 5 8
39 41 42 40 38 35 32 31 30 31 30 30 34 35 36 33 33 32 36 33 31 28 27 28 28 27 28 29 29 28 23 18 16 13 16 14 14 11 8 5 4 6 9
40 40 42 44 42 40 37 34 34 32 35 33 32 31 35 39 37 37 36 38 35 32 29 30 29 29 33 33 30 26 21 19 18 19 16 14 14 12 9 4 3 4 7
36 39 40 44 45 40 40 39 37 38 36 36 36 34 31 30 38 44 42 41 38 35 34 34 30 32 35 37 33 27 24 26 25 17 16 16 13 11 7 4 2 7 10
38 38 35 40 45 44 36 37 38 36 40 38 38 37 36 36 35 35 42 45 41 40 37 36 35 37 39 34 28 26 29 30 21 20 20 16 13 9 7 3 3 8 10
34 36 33 32 38 44 43 43 33 41 35 41 40 42 41 39 40 44 42 44 44 42 41 43 41 42 40 33 31 32 32 24 24 25 20 16 12 10 7 2 4 7 9
25 27 32 30 29 33 38 42 39 42 33 35 35 42 45 46 45 46 43 38 40 39 37 46 45 38 32 35 38 37 27 26 27 22 18 16 15 10 6 5 4 6 9
23 20 19 29 29 27 29 31 38 35 39 34 32 41 39 41 43 44 41 42 44 37 44 45 39 36 38 35 33 25 26 28 25 20 19 17 13 10 7 5 3 5 8

GFSGL_850_spd_021.txt.gz
Wind_Speed
2 2 0 3 5 7 9 4 3 5 5 8 13 15 13 12 12 11 10 12 11 12 13 13 16 18 19 16 14 17 16 20 25 27 20 29 31 30 26 20 15 10 7
2 3 2 2 4 5 9 4 6 6 8 9 11 12 13 11 11 10 11 11 12 12 14 15 16 18 19 13 15 17 14 22 21 26 20 28 31 26 23 16 10 4 1
3 2 3 2 3 5 8 9 9 8 10 10 9 11 12 11 10 10 10 11 10 10 11 14 16 18 18 14 16 18 17 18 18 23 23 26 25 22 24 15 10 7 5
4 3 3 1 5 6 10 9 10 9 10 11 11 11 11 10 11 10 12 13 10 10 10 13 17 17 18 21 20 18 17 21 19 21 22 24 22 20 20 14 12 7 5
7 5 5 7 9 9 8 10 11 9 10 12 11 11 11 11 11 9 10 6 6 9 14 14 17 17 23 21 20 23 29 22 19 21 23 22 21 20 18 13 10 6 5
10 7 8 9 10 9 8 9 9 9 10 9 8 9 11 12 9 12 10 6 7 9 15 15 19 24 22 18 24 23 23 21 18 16 17 19 18 15 11 11 10 8 3
14 10 8 12 10 9 9 11 11 9 8 9 9 7 5 10 19 15 13 14 9 11 16 16 21 24 24 25 25 20 16 13 9 9 15 16 15 14 13 11 8 5 4
17 13 9 15 13 11 10 9 9 8 9 11 14 13 14 17 14 13 11 16 15 22 24 24 27 26 27 22 17 12 14 16 16 17 17 17 14 13 10 8 6 6 6
21 17 12 16 16 12 11 10 8 10 12 13 13 12 12 15 16 15 17 18 20 22 24 25 27 26 20 15 13 16 17 17 14 12 13 11 10 9 7 6 5 5 5
24 18 14 16 17 14 11 11 9 11 14 13 14 13 12 13 14 16 16 17 21 22 24 25 22 18 14 14 15 16 16 14 12 13 13 10 6 4 2 1 4 4 4
23 19 16 16 19 17 16 12 11 13 15 15 15 15 14 14 15 16 16 15 20 25 27 25 17 12 13 13 13 11 10 11 9 8 7 6 5 3 2 4 5 7 7
25 21 19 16 21 20 19 16 13 13 16 16 15 15 15 15 15 15 13 12 15 19 22 20 16 15 14 14 15 13 11 10 8 8 8 7 6 7 8 9 8 7 5
27 23 22 20 19 20 21 20 17 16 17 19 18 17 16 15 14 13 13 12 12 14 16 17 17 16 16 15 14 13 13 13 12 10 10 10 10 11 10 9 7 6 4
28 24 25 25 22 21 21 21 21 20 21 20 21 21 19 18 17 15 14 14 14 15 16 18 17 17 17 16 17 17 15 13 12 12 12 11 12 12 10 8 8 6 5
29 26 26 28 26 23 21 20 21 20 20 23 22 20 21 22 21 18 16 15 15 17 18 20 21 22 23 22 21 19 18 18 17 16 15 13 13 12 10 10 9 8 7
33 31 28 29 30 28 25 24 22 18 18 18 19 19 19 16 15 18 20 19 17 18 20 22 24 24 25 25 23 22 21 20 18 18 16 16 15 13 14 14 12 9 10
34 33 31 30 31 32 30 27 25 22 21 19 20 22 21 18 18 17 20 23 23 22 25 24 25 26 26 26 25 24 23 21 20 21 19 18 19 16 15 15 14 14 14
37 32 32 32 31 32 32 29 26 23 24 25 25 25 25 22 21 19 20 24 30 32 30 29 30 30 29 29 28 27 25 24 24 24 22 22 22 19 19 18 18 17 14
40 37 34 32 31 31 32 33 30 27 25 25 24 27 28 28 25 26 26 28 30 34 34 33 32 32 32 31 30 29 28 27 27 27 25 26 25 22 21 21 21 19 16
39 38 37 36 35 33 32 34 34 32 28 26 25 25 28 31 33 34 34 33 33 33 35 36 35 35 34 32 30 30 30 30 31 30 30 30 28 25 21 23 21 17 13
38 38 38 38 38 37 35 34 34 34 32 29 25 24 26 31 35 37 37 37 37 36 35 37 38 37 37 36 35 35 34 32 34 36 36 35 33 28 25 24 19 19 15
37 36 36 36 38 39 39 36 35 34 34 32 28 25 25 30 33 36 38 38 38 36 35 35 35 37 39 40 42 41 38 33 31 37 41 39 36 30 31 26 19 18 15
36 35 34 35 35 35 38 37 36 35 34 33 32 29 28 29 32 35 36 38 39 38 37 37 38 37 36 37 41 44 41 32 25 33 44 42 37 33 29 20 23 22 14
33 34 34 33 32 32 33 35 34 34 34 33 33 32 30 30 30 31 31 33 34 36 39 41 41 40 41 40 46 42 38 40 29 33 46 47 33 31 19 21 25 19 14
30 34 36 35 34 33 32 32 32 33 35 35 35 35 35 32 32 32 29 33 34 36 38 39 40 42 43 46 45 45 45 45 35 35 43 37 37 28 27 24 23 17 13
24 26 29 30 32 33 34 34 31 29 31 30 30 31 33 32 32 31 32 33 34 35 34 37 38 38 41 44 44 42 43 44 34 34 40 41 36 33 28 24 24 17 13

GFSGL_850_spd_024.txt.gz
Wind_Speed
5 3 1 2 4 6 7 4 3 3 6 9 12 12 9 9 9 9 8 8 10 9 10 8 7 6 9 16 12 14 14 22 26 22 22 33 29 33 34 28 23 18 14
4 3 2 2 3 5 5 5 5 5 7 8 12 12 8 8 8 8 7 8 8 11 11 10 8 10 11 11 12 14 14 18 17 27 33 35 31 28 28 22 18 13 12
4 4 4 2 3 5 6 8 7 9 9 9 9 10 10 9 8 8 8 9 9 8 9 10 11 13 12 10 12 13 12 14 26 27 34 30 28 30 25 21 14 10 9
6 5 5 3 4 6 9 8 7 9 10 11 12 12 11 10 9 9 8 8 8 8 8 8 11 13 15 12 14 14 14 18 24 26 32 30 35 30 23 17 11 9 10
8 6 6 8 7 8 9 10 8 9 10 11 11 12 11 11 11 16 13 9 8 10 11 11 13 12 10 14 14 17 18 21 25 27 35 33 31 28 25 17 12 11 11
10 8 10 10 8 7 10 10 9 9 9 10 9 10 11 11 9 9 6 9 8 11 13 13 13 16 21 18 21 23 17 23 26 25 25 26 26 24 21 15 15 15 11
14 10 12 11 10 8 9 10 10 8 8 8 7 6 8 12 10 9 6 8 9 13 15 16 18 20 18 23 24 25 22 22 20 19 22 21 22 19 17 20 17 14 14
17 13 13 13 12 10 9 8 8 9 9 12 11 9 7 13 16 10 8 9 9 13 16 17 20 22 22 24 26 21 17 16 16 15 15 17 17 18 16 15 16 13 9
20 16 13 15 14 13 10 7 7 10 11 14 13 13 13 18 16 13 17 16 19 19 18 20 26 27 26 20 17 13 18 22 24 23 21 19 19 18 15 12 10 8 6
22 18 14 17 15 14 11 9 10 11 12 13 12 11 11 15 17 18 20 25 26 25 27 26 25 22 19 16 19 21 22 22 22 21 19 17 15 13 11 10 7 6 5
21 20 17 16 17 14 13 11 12 13 13 13 13 12 12 14 16 16 17 22 24 23 26 26 21 16 15 18 19 16 15 17 17 17 16 13 11 10 10 8 6 5 2
22 23 20 17 19 17 15 14 13 14 14 15 14 15 15 16 15 15 16 17 21 23 25 22 17 14 15 17 18 17 14 12 11 12 11 10 8 6 4 3 1 1 3
25 25 22 19 20 19 19 17 16 15 16 16 15 15 16 16 16 16 15 14 17 21 21 16 13 15 16 17 17 16 13 11 10 9 9 8 7 6 5 4 4 5 5
28 27 24 22 21 21 20 19 17 17 17 17 17 16 15 15 15 15 16 16 16 18 18 17 16 15 15 16 17 17 14 12 10 10 10 9 8 9 8 8 8 6 4
30 29 27 25 21 22 21 20 19 16 16 18 19 18 18 17 15 14 14 15 16 17 18 18 18 18 18 18 18 17 16 15 15 14 12 10 12 13 13 11 9 8 7
33 33 29 29 27 23 22 21 20 17 15 15 14 14 15 14 14 14 13 13 13 15 18 20 21 22 22 22 21 20 19 18 17 15 14 14 14 14 15 14 12 11 10
32 33 32 31 30 30 27 24 22 20 19 18 17 18 16 14 15 16 16 18 19 18 20 21 23 23 24 24 24 24 22 19 18 18 18 17 16 17 19 16 15 14 13
33 32 33 32 32 30 30 28 24 22 22 23 23 22 23 22 19 19 20 21 25 28 26 25 24 24 26 26 27 26 24 23 22 21 20 20 20 21 21 20 18 16 17
35 35 33 33 33 31 29 28 28 26 25 23 23 25 26 27 26 26 27 28 28 31 30 29 27 26 27 27 28 28 27 27 26 25 22 23 25 25 25 23 20 17 18
37 35 35 33 34 33 32 30 30 30 29 28 26 25 25 28 32 33 34 34 34 33 32 33 32 31 30 30 30 31 31 32 31 29 28 28 28 29 29 26 24 24 22
39 38 37 37 35 34 33 32 31 31 31 31 28 26 24 27 29 33 35 36 36 35 33 32 33 34 34 33 33 34 34 34 33 33 32 32 32 31 31 28 25 26 22
40 38 38 39 39 37 36 34 33 31 30 31 30 29 27 28 29 30 33 36 37 36 34 33 32 32 34 36 36 36 37 37 36 34 35 34 33 33 32 31 26 26 21
39 38 37 37 38 38 38 37 37 35 34 32 31 31 33 32 31 29 29 30 33 36 36 35 34 33 32 32 32 35 39 39 38 40 39 36 35 35 33 32 30 28 17
37 37 36 34 36 35 35 35 35 35 35 34 31 30 31 34 32 30 27 26 27 29 31 34 36 37 35 33 33 35 35 30 39 47 42 40 41 35 31 37 34 27 25
36 35 35 34 34 33 32 31 30 29 28 30 31 29 27 28 30 31 30 28 26 24 25 26 29 31 32 33 34 36 36 38 40 42 41 41 36 34 34 38 33 24 29
34 33 34 35 35 35 34 32 29 27 24 25 26 26 26 27 26 27 30 30 28 27 28 27 26 28 28 30 32 34 36 37 37 36 36 36 37 33 34 37 30 32 30

GFSGL_850_spd_030.txt.gz
Wind_Speed
10 8 6 4 2 2 1 2 3 7 10 9 7 7 8 7 8 8 9 9 9 8 8 6 8 9 10 11 10 4 5 13 18 17 18 36 49 49 46 40 37 31 27
9 8 5 3 2 1 3 3 4 8 9 10 9 7 7 7 7 6 6 6 7 7 8 8 8 10 13 9 6 5 14 15 24 36 42 49 47 46 44 38 31 28 27
9 7 6 4 2 3 4 3 6 9 10 11 9 8 7 7 7 6 7 7 8 9 11 11 12 14 14 9 9 13 16 16 32 48 46 47 44 41 37 33 27 24 22
9 8 6 4 3 5 5 5 7 8 10 12 11 10 8 8 8 8 8 8 10 11 12 13 12 9 9 7 10 12 16 17 35 39 42 43 45 37 32 29 25 24 22
10 8 7 5 4 7 5 6 7 8 9 10 12 11 10 9 10 10 11 9 11 11 10 10 10 10 10 7 9 12 16 29 43 43 43 45 41 35 30 26 24 27 20
10 9 8 7 6 7 7 8 7 10 10 10 12 12 10 9 11 9 10 11 12 13 13 13 12 12 9 10 10 13 14 32 41 41 42 43 38 32 26 27 27 26 19
11 10 10 9 7 7 8 9 9 9 9 10 11 12 13 17 13 11 11 12 13 14 13 16 16 12 13 14 12 12 21 27 35 39 43 40 36 28 24 22 24 18 15
13 12 12 10 8 7 8 8 8 8 8 9 12 14 12 12 12 10 13 12 12 13 13 15 14 15 15 14 16 18 20 26 29 34 38 34 28 26 20 18 23 17 15
15 14 13 12 10 9 8 8 9 9 9 8 7 11 19 15 12 10 12 12 14 18 13 18 18 24 19 15 23 22 20 20 23 24 28 25 28 21 20 19 20 15 16
18 15 14 12 11 10 8 9 9 10 9 8 8 8 17 20 16 10 10 13 18 16 18 20 23 25 23 17 22 23 24 26 29 26 26 24 21 21 16 15 16 12 11
18 17 15 14 12 11 9 10 11 11 10 9 11 12 13 14 14 14 12 16 21 23 24 24 26 20 18 17 19 21 25 28 26 24 25 24 22 20 19 16 15 10 11
20 18 16 16 13 12 10 11 12 12 11 11 11 12 13 16 17 20 19 17 22 24 26 19 22 18 17 18 17 20 22 25 21 20 20 21 19 17 17 19 19 18 18
22 21 18 17 16 14 12 13 12 12 11 11 10 11 13 15 19 21 21 26 24 21 18 17 19 20 21 20 19 20 23 18 18 18 17 16 17 18 16 16 17 16 14
24 22 20 19 18 16 14 13 13 13 13 12 12 12 13 14 17 22 22 22 23 19 19 19 17 18 19 18 20 20 16 18 18 18 17 17 18 17 17 16 16 15 13
25 24 22 20 21 18 16 15 14 14 13 13 13 13 15 15 16 19 21 20 19 19 21 18 17 16 16 18 19 18 14 16 15 14 14 16 17 17 15 16 13 12 7
28 26 25 22 21 20 19 18 20 17 20 20 17 14 13 14 16 18 21 23 24 22 18 14 14 16 17 17 17 17 16 17 15 15 15 15 15 15 14 14 14 13 12
30 27 25 25 23 22 22 20 19 23 19 21 19 19 17 17 16 17 18 18 19 20 16 14 15 16 17 18 19 19 19 17 17 16 16 16 16 15 18 14 15 14 14
31 30 26 27 24 23 23 22 20 20 21 22 24 23 22 18 17 18 19 19 20 22 17 16 16 17 18 19 19 20 19 18 18 18 18 18 17 16 16 16 16 16 15
33 30 28 25 25 24 22 22 22 21 20 20 19 26 25 24 23 22 22 20 19 20 21 19 18 19 19 20 20 20 20 20 20 20 20 19 19 18 18 17 17 18 20
34 33 32 27 26 26 25 24 23 23 22 22 22 21 28 31 32 32 32 31 24 23 22 22 22 21 21 21 21 21 22 23 22 20 21 21 20 20 20 20 20 21 27
34 35 35 29 28 27 27 27 26 25 24 24 23 23 26 32 30 29 28 31 30 27 25 24 24 24 24 24 23 24 23 22 24 26 25 25 26 25 24 22 22 29 28
34 33 37 34 28 28 29 28 28 27 27 26 24 24 29 30 25 27 27 28 28 28 27 26 26 26 26 26 26 26 26 28 28 27 26 26 26 26 25 25 26 31 31
32 33 31 34 31 29 29 28 29 29 28 27 26 25 30 29 28 26 26 25 25 25 26 27 27 26 26 27 28 28 29 29 28 28 28 27 27 26 27 27 29 29 32
30 32 31 33 33 31 30 30 28 29 27 27 28 28 27 26 28 29 28 26 25 25 25 25 26 27 27 27 27 28 27 26 26 27 29 28 27 29 28 28 31 31 31
28 29 29 28 30 34 30 30 29 28 28 29 29 29 28 28 25 27 27 29 28 27 26 26 26 27 29 30 29 29 29 31 29 26 25 26 26 28 29 30 30 32 34
28 27 28 27 27 27 28 26 27 26 29 29 30 30 30 30 30 28 28 28 28 29 29 29 30 30 28 27 28 31 32 31 30 32 33 29 29 29 31 32 34 38 31

GFSGL_850_spd_033.txt.gz
Wind_Speed
10 7 5 5 3 3 4 2 4 7 8 5 4 6 5 6 6 6 6 6 7 6 8 5 4 7 10 10 8 6 9 16 16 20 17 16 32 30 42 44 44 37 29
9 7 5 4 2 3 2 4 3 8 8 7 6 6 6 6 6 6 6 7 6 4 4 3 5 6 9 8 3 2 6 16 19 24 23 34 42 47 45 43 37 30 28
9 8 6 4 2 2 3 2 5 9 8 8 7 6 5 5 5 6 6 7 9 6 6 5 3 6 8 5 4 9 10 14 19 33 40 48 47 43 42 33 32 29 27
9 8 6 5 3 5 4 4 7 7 11 9 7 6 6 6 5 6 7 8 8 8 8 7 6 7 8 6 10 12 15 33 40 46 47 47 47 43 41 36 28 24 23
10 9 7 4 6 5 6 6 6 7 10 9 8 7 7 7 6 8 8 7 8 8 8 8 7 9 6 8 11 16 22 39 43 46 45 46 44 38 32 32 29 26 21
11 10 7 8 8 7 8 7 8 8 8 9 9 7 7 6 7 9 8 8 8 8 10 5 6 9 10 11 11 14 23 42 45 44 44 43 38 36 31 29 30 25 21
12 11 10 7 7 7 8 8 8 8 8 8 8 8 8 9 10 10 10 8 9 7 7 10 11 9 11 12 14 14 18 34 39 39 43 40 35 32 26 28 25 21 19
14 12 11 8 7 8 7 8 7 9 8 8 8 12 12 12 10 15 12 7 9 8 9 10 11 12 14 14 14 18 27 32 32 37 39 38 32 23 20 21 22 14 15
15 14 13 10 8 8 7 7 8 9 8 9 12 13 11 12 11 14 12 8 8 9 12 9 12 13 14 15 16 23 27 33 28 31 33 29 21 22 19 24 18 16 15
16 15 14 11 10 8 7 6 7 8 7 7 8 13 17 12 12 13 10 11 13 12 13 17 16 17 18 18 19 23 26 30 29 30 29 26 22 19 18 18 17 14 16
17 15 15 13 12 9 8 5 9 9 7 10 8 13 19 17 13 12 13 12 13 15 19 21 18 17 19 21 18 19 28 28 35 33 26 25 24 19 15 16 17 13 13
18 17 16 14 12 10 9 9 10 7 7 8 11 13 13 15 12 12 14 14 18 16 20 20 19 17 17 17 20 25 29 29 27 28 26 22 21 19 16 14 16 17 18
20 19 17 15 14 12 12 10 10 9 6 8 12 13 14 12 15 17 15 22 21 18 20 19 19 16 15 16 19 22 24 21 20 20 18 17 18 17 21 23 22 22 16
22 21 19 18 16 14 12 12 10 10 8 9 12 12 14 14 16 15 18 25 22 15 15 16 17 19 15 17 20 22 16 15 17 18 17 17 20 24 22 18 17 18 18
23 22 21 19 19 16 14 13 11 11 11 10 10 13 14 16 17 19 20 21 16 15 18 18 18 17 17 18 20 21 14 18 18 22 23 22 19 17 17 17 14 14 12
26 24 23 21 21 18 17 16 16 16 16 13 15 14 14 15 18 20 22 21 17 18 15 14 14 14 14 16 16 15 14 15 14 13 13 13 14 15 15 15 14 15 13
29 26 23 22 20 21 20 18 19 19 21 19 19 16 16 15 14 19 22 24 23 18 15 15 14 15 16 17 17 18 17 16 16 16 17 17 17 18 20 17 17 16 16
29 27 25 24 22 22 21 21 18 19 19 24 24 22 19 19 18 19 22 23 25 24 19 17 16 17 18 19 19 20 20 20 19 19 20 21 22 19 19 20 19 20 18
30 27 26 23 22 21 21 21 20 19 19 19 21 29 27 23 20 21 22 22 21 22 23 19 18 19 19 20 21 23 25 25 25 25 26 25 25 23 23 22 21 22 21
32 29 29 24 24 23 23 22 22 22 21 21 23 24 32 31 29 29 29 27 21 21 21 22 20 20 21 22 25 25 25 27 28 29 28 27 27 26 24 24 23 24 26
29 30 32 27 25 25 25 24 23 23 23 23 24 24 27 34 30 29 31 33 28 23 23 22 22 23 23 24 24 26 27 28 30 30 31 28 28 28 29 27 27 25 26
30 29 34 31 25 26 26 25 24 24 24 24 23 23 28 26 26 27 27 28 30 31 28 26 25 25 26 28 29 29 29 30 31 32 32 30 29 31 30 29 26 27 25
31 30 29 33 30 27 27 26 26 26 25 25 24 24 28 30 27 28 31 30 30 29 29 32 30 28 28 29 30 32 32 32 32 32 32 30 31 31 30 31 28 24 24
32 31 32 29 32 29 28 29 28 28 26 26 26 26 27 29 29 30 29 30 31 31 30 29 31 31 31 32 32 33 33 33 32 31 30 32 30 29 30 27 23 23 29
30 32 32 33 32 36 31 30 30 28 29 28 28 27 27 27 26 27 29 31 30 31 31 33 33 32 33 34 33 31 32 33 33 31 28 30 32 29 27 24 25 26 31
32 31 33 33 32 34 36 34 33 32 29 29 30 28 28 28 28 29 29 31 34 36 35 34 36 33 31 31 31 34 33 34 34 33 33 28 24 26 25 27 26 28 36